| time (UTC) | temp F | wind direction | speed MPH | gust MPH | rain 1hr in | rain 24hr in | rain mn in | humidity % | barometer mb |
| 20260506051057 | 47 | 299 | 2.0 | 4.0 | 0.00 | 0.00 | 0.00 | 88 | 1007.2 |
| 20260506050559 | 47 | 308 | 2.0 | 4.0 | 0.00 | 0.00 | 0.00 | 88 | 1007.3 |
| 20260506050114 | 47 | 309 | 1.0 | 4.0 | 0.00 | 0.00 | 0.00 | 87 | 1007.3 |
| 20260506045055 | 48 | 302 | 1.0 | 4.0 | 0.00 | 0.00 | 0.00 | 87 | 1007.2 |
| 20260506044601 | 48 | 310 | 3.0 | 5.0 | 0.00 | 0.00 | 0.00 | 86 | 1007.3 |
| 20260506044052 | 48 | 306 | 2.0 | 5.0 | 0.00 | 0.00 | 0.00 | 86 | 1007.3 |
| 20260506043554 | 48 | 295 | 2.0 | 7.0 | 0.00 | 0.00 | 0.00 | 86 | 1007.6 |
| 20260506043051 | 49 | 273 | 2.0 | 7.0 | 0.00 | 0.00 | 0.00 | 86 | 1007.4 |
| 20260506042549 | 49 | 306 | 3.0 | 8.0 | 0.00 | 0.00 | 0.00 | 86 | 1007.6 |
| 20260506040517 | 49 | 304 | 2.0 | 5.0 | 0.00 | 0.00 | 0.00 | 85 | 1007.5 |
| 20260506040017 | 50 | 304 | 2.0 | 4.0 | 0.00 | 0.00 | 0.00 | 85 | 1007.6 |
| 20260506035517 | 50 | 309 | 1.0 | 4.0 | 0.00 | 0.00 | 0.00 | 85 | 1007.5 |
| 20260506035016 | 50 | 292 | 0.0 | 4.0 | 0.00 | 0.00 | 0.00 | 85 | 1007.7 |
| 20260506034516 | 50 | 301 | 2.0 | 4.0 | 0.00 | 0.00 | 0.00 | 85 | 1007.6 |
| 20260506034018 | 50 | 300 | 2.0 | 5.0 | 0.00 | 0.00 | 0.00 | 84 | 1007.6 |
| 20260506033514 | 50 | 308 | 3.0 | 9.0 | 0.00 | 0.00 | 0.00 | 84 | 1007.7 |
| 20260506033016 | 50 | 303 | 4.0 | 9.0 | 0.00 | 0.00 | 0.00 | 84 | 1007.6 |
| 20260506032514 | 50 | 302 | 4.0 | 8.0 | 0.00 | 0.00 | 0.00 | 83 | 1007.8 |
| 20260506032014 | 51 | 313 | 4.0 | 8.0 | 0.00 | 0.00 | 0.00 | 83 | 1007.8 |
| 20260506031516 | 51 | 295 | 2.0 | 5.0 | 0.00 | 0.00 | 0.00 | 83 | 1007.5 |
| 20260506031013 | 51 | 292 | 2.0 | 5.0 | 0.00 | 0.00 | 0.00 | 83 | 1007.4 |
| 20260506030512 | 51 | 305 | 1.0 | 5.0 | 0.00 | 0.00 | 0.00 | 83 | 1007.5 |
| 20260506030012 | 51 | 281 | 2.0 | 5.0 | 0.00 | 0.00 | 0.00 | 84 | 1007.7 |
| 20260506025516 | 51 | 264 | 0.0 | 4.0 | 0.00 | 0.00 | 0.00 | 83 | 1007.5 |
| 20260506025012 | 51 | 292 | 0.0 | 4.0 | 0.00 | 0.00 | 0.00 | 83 | 1007.4 |
| 20260506024511 | 51 | 303 | 0.0 | 2.0 | 0.00 | 0.00 | 0.00 | 83 | 1007.7 |
| 20260506024011 | 51 | 303 | 0.0 | 3.0 | 0.00 | 0.00 | 0.00 | 83 | 1007.7 |
| 20260506023510 | 51 | 257 | 0.0 | 3.0 | 0.00 | 0.00 | 0.00 | 83 | 1007.7 |
| 20260506023010 | 51 | 237 | 1.0 | 4.0 | 0.00 | 0.00 | 0.00 | 83 | 1007.8 |
| 20260506022509 | 51 | 233 | 1.0 | 5.0 | 0.00 | 0.00 | 0.00 | 83 | 1007.7 |
| 20260506022008 | 51 | 299 | 1.0 | 5.0 | 0.00 | 0.00 | 0.00 | 83 | 1007.5 |
| 20260506021507 | 51 | 305 | 2.0 | 5.0 | 0.00 | 0.00 | 0.00 | 83 | 1007.4 |
| 20260506021006 | 51 | 294 | 1.0 | 4.0 | 0.00 | 0.00 | 0.00 | 84 | 1007.6 |
| 20260506020508 | 51 | 288 | 1.0 | 3.0 | 0.00 | 0.00 | 0.00 | 84 | 1007.5 |
| 20260506020007 | 51 | 289 | 0.0 | 6.0 | 0.00 | 0.00 | 0.00 | 84 | 1007.6 |
| 20260506015505 | 51 | 287 | 1.0 | 6.0 | 0.00 | 0.00 | 0.00 | 84 | 1007.4 |
| 20260506015005 | 52 | 292 | 2.0 | 9.0 | 0.00 | 0.00 | 0.00 | 84 | 1007.3 |
| 20260506014505 | 52 | 306 | 6.0 | 9.0 | 0.00 | 0.00 | 0.00 | 84 | 1007.4 |
| 20260506014003 | 52 | 309 | 4.0 | 11.0 | 0.00 | 0.00 | 0.00 | 84 | 1007.3 |
| 20260506013502 | 52 | 309 | 5.0 | 11.0 | 0.00 | 0.00 | 0.00 | 84 | 1007.0 |
| 20260506013003 | 52 | 320 | 5.0 | 10.0 | 0.00 | 0.00 | 0.00 | 85 | 1007.0 |
| 20260506012502 | 52 | 322 | 5.0 | 10.0 | 0.00 | 0.00 | 0.00 | 84 | 1007.0 |
| 20260506012002 | 52 | 313 | 5.0 | 11.0 | 0.00 | 0.00 | 0.00 | 84 | 1007.0 |
| 20260506011600 | 52 | 301 | 6.0 | 14.0 | 0.00 | 0.00 | 0.00 | 84 | 1007.1 |
| 20260506011059 | 53 | 320 | 9.0 | 14.0 | 0.00 | 0.00 | 0.00 | 84 | 1007.2 |
| 20260506010558 | 53 | 308 | 6.0 | 13.0 | 0.00 | 0.00 | 0.00 | 84 | 1007.1 |
| 20260506010100 | 53 | 311 | 10.0 | 13.0 | 0.00 | 0.00 | 0.00 | 84 | 1006.9 |
| 20260506005556 | 54 | 312 | 7.0 | 12.0 | 0.00 | 0.00 | 0.00 | 85 | 1006.5 |
| 20260506005055 | 54 | 29 | 8.0 | 12.0 | 0.00 | 0.00 | 0.00 | 86 | 1006.9 |
| 20260506004624 | 54 | 272 | 7.0 | 11.0 | 0.00 | 0.00 | 0.00 | 86 | 1007.2 |
| 20260506004050 | 55 | 316 | 6.0 | 12.0 | 0.00 | 0.00 | 0.00 | 86 | 1006.4 |
| 20260506003550 | 55 | 351 | 7.0 | 12.0 | 0.00 | 0.00 | 0.00 | 86 | 1006.0 |
| 20260506003049 | 56 | 313 | 8.0 | 13.0 | 0.00 | 0.00 | 0.00 | 86 | 1005.9 |
| 20260506002548 | 57 | 304 | 7.0 | 17.0 | 0.00 | 0.00 | 0.00 | 86 | 1005.9 |
| 20260506002052 | 57 | 292 | 10.0 | 17.0 | 0.00 | 0.00 | 0.00 | 85 | 1005.7 |
| 20260506001547 | 58 | 291 | 8.0 | 13.0 | 0.00 | 0.00 | 0.00 | 85 | 1005.8 |
| 20260506001047 | 59 | 292 | 7.0 | 12.0 | 0.00 | 0.00 | 0.00 | 83 | 1005.6 |
| 20260506000545 | 60 | 287 | 3.0 | 5.0 | 0.00 | 0.00 | 0.00 | 82 | 1005.3 |
| 20260506000047 | 60 | 11 | 0.0 | 4.0 | 0.00 | 0.00 | 0.00 | 80 | 1005.1 |
| 20260505235545 | 60 | 188 | 0.0 | 7.0 | 0.00 | 0.00 | 0.00 | 79 | 1005.1 |
| 20260505235048 | 61 | 188 | 1.0 | 7.0 | 0.00 | 0.00 | 0.00 | 78 | 1005.1 |
| 20260505234607 | 61 | 220 | 3.0 | 7.0 | 0.00 | 0.00 | 0.00 | 76 | 1005.1 |
| 20260505234044 | 61 | 196 | 4.0 | 8.0 | 0.00 | 0.00 | 0.00 | 76 | 1005.1 |
| 20260505233543 | 61 | 223 | 2.0 | 6.0 | 0.00 | 0.00 | 0.00 | 76 | 1004.8 |
| 20260505233043 | 61 | 204 | 2.0 | 5.0 | 0.00 | 0.00 | 0.00 | 75 | 1004.7 |
| 20260505232543 | 61 | 234 | 1.0 | 5.0 | 0.00 | 0.00 | 0.00 | 74 | 1004.5 |
| 20260505232046 | 61 | 267 | 0.0 | 5.0 | 0.00 | 0.00 | 0.00 | 73 | 1004.4 |
| 20260505231542 | 62 | 301 | 0.0 | 3.0 | 0.00 | 0.00 | 0.00 | 73 | 1004.3 |
| 20260505231042 | 62 | 298 | 0.0 | 6.0 | 0.00 | 0.00 | 0.00 | 73 | 1004.2 |
| 20260505230542 | 62 | 257 | 1.0 | 6.0 | 0.00 | 0.00 | 0.00 | 72 | 1004.2 |
| 20260505230045 | 62 | 215 | 0.0 | 5.0 | 0.00 | 0.00 | 0.00 | 73 | 1004.2 |
| 20260505225543 | 62 | 236 | 0.0 | 7.0 | 0.00 | 0.00 | 0.00 | 74 | 1004.1 |
| 20260505225043 | 62 | 242 | 0.0 | 7.0 | 0.00 | 0.00 | 0.00 | 75 | 1004.0 |
| 20260505224541 | 61 | 225 | 0.0 | 6.0 | 0.00 | 0.00 | 0.00 | 76 | 1004.1 |
| 20260505224040 | 61 | 202 | 2.0 | 9.0 | 0.00 | 0.00 | 0.00 | 76 | 1004.1 |
| 20260505223541 | 61 | 197 | 3.0 | 9.0 | 0.00 | 0.00 | 0.00 | 77 | 1004.1 |
| 20260505223057 | 61 | 173 | 2.0 | 9.0 | 0.00 | 0.00 | 0.00 | 78 | 1004.1 |
| 20260505222541 | 61 | 197 | 3.0 | 9.0 | 0.00 | 0.00 | 0.00 | 78 | 1004.2 |
| 20260505222040 | 60 | 215 | 4.0 | 8.0 | 0.00 | 0.00 | 0.00 | 79 | 1004.1 |
| 20260505221555 | 60 | 221 | 5.0 | 12.0 | 0.00 | 0.00 | 0.00 | 79 | 1003.9 |
| 20260505221039 | 60 | 203 | 4.0 | 12.0 | 0.00 | 0.00 | 0.00 | 79 | 1003.9 |
| 20260505220542 | 60 | 215 | 4.0 | 9.0 | 0.00 | 0.00 | 0.00 | 79 | 1003.8 |
| 20260505220040 | 60 | 203 | 5.0 | 9.0 | 0.00 | 0.00 | 0.00 | 78 | 1003.7 |
| 20260505215539 | 60 | 181 | 4.0 | 9.0 | 0.00 | 0.00 | 0.00 | 78 | 1003.7 |
| 20260505215039 | 60 | 173 | 5.0 | 9.0 | 0.00 | 0.00 | 0.00 | 77 | 1003.8 |
| 20260505214547 | 60 | 183 | 2.0 | 7.0 | 0.00 | 0.00 | 0.00 | 77 | 1003.7 |
| 20260505214038 | 60 | 183 | 4.0 | 7.0 | 0.00 | 0.00 | 0.00 | 78 | 1003.8 |
| 20260505213537 | 60 | 223 | 1.0 | 7.0 | 0.00 | 0.00 | 0.00 | 78 | 1003.6 |
| 20260505213037 | 60 | 205 | 0.0 | 9.0 | 0.00 | 0.00 | 0.00 | 78 | 1003.7 |
| 20260505212537 | 60 | 235 | 0.0 | 9.0 | 0.00 | 0.00 | 0.00 | 77 | 1003.7 |
| 20260505212037 | 60 | 300 | 2.0 | 10.0 | 0.00 | 0.00 | 0.00 | 78 | 1003.8 |
| 20260505211536 | 60 | 198 | 1.0 | 7.0 | 0.00 | 0.00 | 0.00 | 79 | 1003.9 |
| 20260505211035 | 60 | 249 | 2.0 | 7.0 | 0.00 | 0.00 | 0.00 | 80 | 1004.1 |
| 20260505210536 | 61 | 251 | 1.0 | 9.0 | 0.00 | 0.00 | 0.00 | 81 | 1004.2 |
| 20260505210035 | 60 | 261 | 4.0 | 9.0 | 0.00 | 0.00 | 0.00 | 81 | 1004.3 |
| 20260505205537 | 61 | 244 | 2.0 | 6.0 | 0.00 | 0.00 | 0.00 | 83 | 1004.0 |
| 20260505205036 | 61 | 232 | 1.0 | 5.0 | 0.00 | 0.00 | 0.00 | 84 | 1004.2 |
| 20260505204535 | 60 | 164 | 1.0 | 6.0 | 0.00 | 0.00 | 0.00 | 85 | 1004.1 |
| 20260505204034 | 60 | 303 | 0.0 | 6.0 | 0.00 | 0.00 | 0.00 | 86 | 1004.2 |
| 20260505203534 | 60 | 247 | 0.0 | 4.0 | 0.00 | 0.00 | 0.00 | 86 | 1004.2 |
| 20260505203036 | 59 | 296 | 1.0 | 8.0 | 0.00 | 0.00 | 0.00 | 86 | 1004.1 |
| 20260505202534 | 59 | 266 | 1.0 | 8.0 | 0.00 | 0.00 | 0.00 | 86 | 1004.1 |
| 20260505202034 | 59 | 211 | 2.0 | 6.0 | 0.00 | 0.00 | 0.00 | 87 | 1004.1 |
| 20260505201533 | 58 | 303 | 1.0 | 10.0 | 0.00 | 0.00 | 0.00 | 86 | 1003.9 |
| 20260505201032 | 58 | 213 | 0.0 | 10.0 | 0.00 | 0.00 | 0.00 | 85 | 1003.9 |
| 20260505200532 | 58 | 259 | 0.0 | 8.0 | 0.00 | 0.00 | 0.00 | 83 | 1003.9 |
| 20260505200034 | 59 | 252 | 1.0 | 8.0 | 0.00 | 0.00 | 0.00 | 81 | 1003.7 |
| 20260505195531 | 59 | 210 | 0.0 | 5.0 | 0.00 | 0.00 | 0.00 | 79 | 1004.7 |
| 20260505195030 | 60 | 205 | 1.0 | 11.0 | 0.00 | 0.00 | 0.00 | 77 | 1004.3 |
| 20260505194530 | 61 | 304 | 2.0 | 23.0 | 0.00 | 0.00 | 0.00 | 75 | 1004.2 |
| 20260505194032 | 62 | 267 | 12.0 | 23.0 | 0.00 | 0.00 | 0.00 | 72 | 1003.8 |
| 20260505193530 | 63 | 265 | 8.0 | 13.0 | 0.00 | 0.00 | 0.00 | 77 | 1003.6 |
| 20260505193030 | 64 | 303 | 3.0 | 5.0 | 0.00 | 0.00 | 0.00 | 76 | 1003.0 |
| 20260505192529 | 64 | 309 | 0.0 | 3.0 | 0.00 | 0.00 | 0.00 | 76 | 1002.6 |
| 20260505192029 | 64 | 301 | 0.0 | 5.0 | 0.00 | 0.00 | 0.00 | 76 | 1002.6 |
| 20260505191528 | 63 | 309 | 1.0 | 5.0 | 0.00 | 0.00 | 0.00 | 77 | 1002.6 |
| 20260505191028 | 63 | 284 | 1.0 | 5.0 | 0.00 | 0.00 | 0.00 | 76 | 1002.5 |
| 20260505190530 | 62 | 351 | 1.0 | 8.0 | 0.00 | 0.00 | 0.00 | 78 | 1002.6 |
| 20260505190028 | 62 | 298 | 0.0 | 8.0 | 0.00 | 0.00 | 0.00 | 79 | 1002.8 |
| 20260505185527 | 60 | 189 | 4.0 | 10.0 | 0.00 | 0.00 | 0.00 | 80 | 1002.8 |
| 20260505185027 | 60 | 209 | 3.0 | 7.0 | 0.00 | 0.00 | 0.00 | 82 | 1002.9 |
| 20260505184528 | 60 | 329 | 4.0 | 8.0 | 0.00 | 0.00 | 0.00 | 82 | 1003.2 |
| 20260505184026 | 59 | 292 | 1.0 | 11.0 | 0.00 | 0.00 | 0.00 | 81 | 1003.2 |
| 20260505183526 | 59 | 211 | 4.0 | 11.0 | 0.00 | 0.00 | 0.00 | 81 | 1003.3 |
| 20260505183040 | 59 | 181 | 5.0 | 11.0 | 0.00 | 0.00 | 0.00 | 79 | 1003.1 |
| 20260505182524 | 61 | 28 | 2.0 | 26.0 | 0.00 | 0.00 | 0.00 | 75 | 1003.7 |
| 20260505182022 | 63 | 292 | 4.0 | 26.0 | 0.00 | 0.00 | 0.00 | 70 | 1004.3 |
| 20260505181522 | 66 | 188 | 6.0 | 24.0 | 0.00 | 0.00 | 0.00 | 56 | 1003.7 |
| 20260505181021 | 66 | 229 | 2.0 | 4.0 | 0.00 | 0.00 | 0.00 | 63 | 1003.0 |
| 20260505180521 | 66 | 92 | 0.0 | 7.0 | 0.00 | 0.00 | 0.00 | 61 | 1002.7 |
| 20260505180021 | 66 | 148 | 2.0 | 6.0 | 0.00 | 0.00 | 0.00 | 61 | 1002.6 |
| 20260505175521 | 67 | 213 | 0.0 | 12.0 | 0.00 | 0.00 | 0.00 | 58 | 1002.6 |
| 20260505175020 | 69 | 256 | 5.0 | 16.0 | 0.00 | 0.00 | 0.00 | 52 | 1002.5 |
| 20260505174520 | 72 | 287 | 5.0 | 19.0 | 0.00 | 0.00 | 0.00 | 42 | 1002.9 |
| 20260505174020 | 73 | 183 | 3.0 | 18.0 | 0.00 | 0.00 | 0.00 | 37 | 1002.7 |
| 20260505173519 | 73 | 265 | 5.0 | 21.0 | 0.00 | 0.00 | 0.00 | 36 | 1002.6 |
| 20260505173022 | 74 | 196 | 6.0 | 21.0 | 0.00 | 0.00 | 0.00 | 36 | 1002.9 |
| 20260505172522 | 75 | 24 | 6.0 | 16.0 | 0.00 | 0.00 | 0.00 | 35 | 1002.7 |
| 20260505172019 | 76 | 173 | 5.0 | 19.0 | 0.00 | 0.00 | 0.00 | 36 | 1002.6 |
| 20260505171517 | 75 | 198 | 5.0 | 19.0 | 0.00 | 0.00 | 0.00 | 37 | 1002.6 |
| 20260505171017 | 75 | 248 | 6.0 | 17.0 | 0.00 | 0.00 | 0.00 | 38 | 1002.4 |
| 20260505170517 | 74 | 300 | 5.0 | 17.0 | 0.00 | 0.00 | 0.00 | 37 | 1002.4 |
| 20260505170018 | 74 | 204 | 3.0 | 18.0 | 0.00 | 0.00 | 0.00 | 36 | 1002.6 |
| 20260505165516 | 74 | 233 | 7.0 | 18.0 | 0.00 | 0.00 | 0.00 | 36 | 1002.5 |
| 20260505165016 | 74 | 13 | 6.0 | 15.0 | 0.00 | 0.00 | 0.00 | 36 | 1002.5 |
| 20260505164517 | 74 | 290 | 5.0 | 15.0 | 0.00 | 0.00 | 0.00 | 36 | 1002.7 |
| 20260505164015 | 75 | 224 | 3.0 | 20.0 | 0.00 | 0.00 | 0.00 | 37 | 1002.7 |
| 20260505163515 | 75 | 196 | 8.0 | 20.0 | 0.00 | 0.00 | 0.00 | 36 | 1002.8 |
| 20260505163015 | 75 | 225 | 8.0 | 20.0 | 0.00 | 0.00 | 0.00 | 35 | 1002.9 |
| 20260505162513 | 74 | 232 | 4.0 | 25.0 | 0.00 | 0.00 | 0.00 | 36 | 1003.0 |
| 20260505162014 | 74 | 250 | 9.0 | 26.0 | 0.00 | 0.00 | 0.00 | 37 | 1003.0 |
| 20260505161513 | 74 | 197 | 8.0 | 15.0 | 0.00 | 0.00 | 0.00 | 36 | 1003.1 |
| 20260505161012 | 74 | 239 | 6.0 | 20.0 | 0.00 | 0.00 | 0.00 | 38 | 1002.9 |
| 20260505160512 | 74 | 284 | 8.0 | 20.0 | 0.00 | 0.00 | 0.00 | 36 | 1002.9 |
| 20260505153004 | 71 | 198 | 10.0 | 24.0 | 0.00 | 0.00 | 0.00 | 40 | 1003.1 |
| 20260505152502 | 71 | 209 | 10.0 | 22.0 | 0.00 | 0.00 | 0.00 | 41 | 1003.3 |
| 20260505152002 | 70 | 206 | 10.0 | 22.0 | 0.00 | 0.00 | 0.00 | 42 | 1003.3 |
| 20260505151500 | 70 | 212 | 11.0 | 22.0 | 0.00 | 0.00 | 0.00 | 42 | 1003.4 |
| 20260505151100 | 70 | 237 | 8.0 | 19.0 | 0.00 | 0.00 | 0.00 | 43 | 1003.4 |
| 20260505150559 | 70 | 187 | 5.0 | 14.0 | 0.00 | 0.00 | 0.00 | 45 | 1003.5 |
| 20260505140545 | 67 | 230 | 6.0 | 18.0 | 0.00 | 0.00 | 0.00 | 49 | 1003.8 |
| 20260505125024 | 62 | 201 | 4.0 | 12.0 | 0.00 | 0.00 | 0.00 | 58 | 1004.6 |
| 20260505124523 | 62 | 213 | 5.0 | 16.0 | 0.00 | 0.00 | 0.00 | 59 | 1004.7 |
| 20260505124020 | 62 | 199 | 5.0 | 16.0 | 0.00 | 0.00 | 0.00 | 60 | 1004.8 |
| 20260505123525 | 61 | 235 | 2.0 | 18.0 | 0.00 | 0.00 | 0.00 | 59 | 1004.6 |
| 20260505123019 | 61 | 266 | 6.0 | 18.0 | 0.00 | 0.00 | 0.00 | 59 | 1004.6 |
| 20260505122518 | 61 | 209 | 5.0 | 16.0 | 0.00 | 0.00 | 0.00 | 59 | 1004.5 |
| 20260505122021 | 60 | 207 | 9.0 | 16.0 | 0.00 | 0.00 | 0.00 | 59 | 1004.5 |
| 20260505121516 | 60 | 206 | 6.0 | 17.0 | 0.00 | 0.00 | 0.00 | 60 | 1004.4 |
| 20260505121014 | 60 | 167 | 5.0 | 13.0 | 0.00 | 0.00 | 0.00 | 61 | 1004.3 |
| 20260505120515 | 59 | 200 | 3.0 | 13.0 | 0.00 | 0.00 | 0.00 | 62 | 1004.2 |
| 20260505120012 | 59 | 188 | 4.0 | 13.0 | 0.00 | 0.00 | 0.00 | 62 | 1004.1 |
| 20260505115513 | 59 | 231 | 5.0 | 18.0 | 0.00 | 0.00 | 0.00 | 62 | 1003.9 |
| 20260505115013 | 59 | 173 | 8.0 | 14.0 | 0.00 | 0.00 | 0.00 | 60 | 1004.0 |
| 20260505114512 | 59 | 194 | 4.0 | 14.0 | 0.00 | 0.00 | 0.00 | 60 | 1003.9 |
| 20260505114010 | 59 | 134 | 4.0 | 18.0 | 0.00 | 0.00 | 0.00 | 60 | 1003.9 |
| 20260505113514 | 59 | 216 | 6.0 | 18.0 | 0.00 | 0.00 | 0.00 | 60 | 1004.1 |
| 20260505113011 | 58 | 197 | 5.0 | 14.0 | 0.00 | 0.00 | 0.00 | 60 | 1004.3 |
| 20260505112511 | 58 | 212 | 4.0 | 21.0 | 0.00 | 0.00 | 0.00 | 61 | 1004.3 |
| 20260505112010 | 58 | 205 | 9.0 | 21.0 | 0.00 | 0.00 | 0.00 | 60 | 1004.3 |
| 20260505111510 | 58 | 198 | 9.0 | 21.0 | 0.00 | 0.00 | 0.00 | 60 | 1004.3 |
| 20260505111009 | 58 | 194 | 9.0 | 21.0 | 0.00 | 0.00 | 0.00 | 61 | 1004.1 |
| 20260505110506 | 58 | 228 | 6.0 | 17.0 | 0.00 | 0.00 | 0.00 | 60 | 1004.1 |
| 20260505102002 | 56 | 180 | 6.0 | 12.0 | 0.00 | 0.00 | 0.00 | 65 | 1003.5 |
| 20260505101600 | 56 | 146 | 6.0 | 13.0 | 0.00 | 0.00 | 0.00 | 64 | 1003.6 |
| 20260505101058 | 56 | 188 | 5.0 | 11.0 | 0.00 | 0.00 | 0.00 | 64 | 1003.5 |
| 20260505100557 | 56 | 190 | 4.0 | 11.0 | 0.00 | 0.00 | 0.00 | 65 | 1003.6 |
| 20260505100056 | 55 | 184 | 4.0 | 9.0 | 0.00 | 0.00 | 0.00 | 66 | 1003.7 |
| 20260505095556 | 55 | 196 | 2.0 | 8.0 | 0.00 | 0.00 | 0.00 | 67 | 1003.7 |
| 20260505095056 | 55 | 176 | 3.0 | 8.0 | 0.00 | 0.00 | 0.00 | 68 | 1003.7 |
| 20260505094554 | 55 | 168 | 3.0 | 9.0 | 0.00 | 0.00 | 0.00 | 69 | 1003.9 |
| 20260505094055 | 55 | 180 | 4.0 | 10.0 | 0.00 | 0.00 | 0.00 | 70 | 1004.0 |
| 20260505093553 | 55 | 183 | 6.0 | 10.0 | 0.00 | 0.00 | 0.00 | 70 | 1004.0 |
| 20260505093053 | 55 | 183 | 4.0 | 8.0 | 0.00 | 0.00 | 0.00 | 70 | 1004.0 |
| 20260505092555 | 55 | 177 | 2.0 | 9.0 | 0.00 | 0.00 | 0.00 | 70 | 1004.1 |
| 20260505092050 | 55 | 169 | 3.0 | 7.0 | 0.00 | 0.00 | 0.00 | 70 | 1004.2 |
| 20260505091604 | 56 | 211 | 3.0 | 9.0 | 0.00 | 0.00 | 0.00 | 68 | 1004.1 |
| 20260505091048 | 57 | 190 | 2.0 | 12.0 | 0.00 | 0.00 | 0.00 | 66 | 1004.1 |
| 20260505090546 | 58 | 189 | 6.0 | 14.0 | 0.00 | 0.00 | 0.00 | 57 | 1004.4 |
| 20260505090049 | 58 | 221 | 6.0 | 14.0 | 0.00 | 0.00 | 0.00 | 56 | 1004.1 |
| 20260505085545 | 57 | 201 | 5.0 | 17.0 | 0.00 | 0.00 | 0.00 | 54 | 1003.9 |
| 20260505085045 | 57 | 148 | 6.0 | 17.0 | 0.00 | 0.00 | 0.00 | 54 | 1003.9 |
| 20260505084548 | 57 | 188 | 6.0 | 11.0 | 0.00 | 0.00 | 0.00 | 54 | 1003.8 |
| 20260505084044 | 57 | 173 | 5.0 | 12.0 | 0.00 | 0.00 | 0.00 | 54 | 1003.9 |
| 20260505083543 | 57 | 196 | 5.0 | 12.0 | 0.00 | 0.00 | 0.00 | 53 | 1003.9 |
| 20260505083044 | 57 | 182 | 4.0 | 10.0 | 0.00 | 0.00 | 0.00 | 53 | 1003.9 |
| 20260505082543 | 57 | 169 | 5.0 | 9.0 | 0.00 | 0.00 | 0.00 | 53 | 1003.9 |
| 20260505082043 | 57 | 182 | 5.0 | 10.0 | 0.00 | 0.00 | 0.00 | 53 | 1003.8 |
| 20260505081543 | 57 | 215 | 3.0 | 10.0 | 0.00 | 0.00 | 0.00 | 53 | 1004.1 |
| 20260505081043 | 57 | 186 | 2.0 | 8.0 | 0.00 | 0.00 | 0.00 | 53 | 1004.1 |
| 20260505080545 | 57 | 211 | 3.0 | 7.0 | 0.00 | 0.00 | 0.00 | 53 | 1004.2 |
| 20260505080044 | 57 | 210 | 3.0 | 7.0 | 0.00 | 0.00 | 0.00 | 55 | 1004.3 |
| 20260505075545 | 57 | 209 | 2.0 | 5.0 | 0.00 | 0.00 | 0.00 | 56 | 1004.4 |
| 20260505075042 | 57 | 173 | 2.0 | 6.0 | 0.00 | 0.00 | 0.00 | 56 | 1004.6 |
| 20260505074541 | 57 | 50 | 0.0 | 10.0 | 0.00 | 0.00 | 0.00 | 56 | 1004.6 |
| 20260505074039 | 57 | 5 | 1.0 | 10.0 | 0.00 | 0.00 | 0.00 | 55 | 1004.6 |
| 20260505073539 | 57 | 253 | 2.0 | 11.0 | 0.00 | 0.00 | 0.00 | 55 | 1004.5 |
| 20260505073043 | 57 | 205 | 6.0 | 14.0 | 0.00 | 0.00 | 0.00 | 55 | 1004.4 |
| 20260505072640 | 57 | 244 | 4.0 | 14.0 | 0.00 | 0.00 | 0.00 | 55 | 1004.3 |
| 20260505072038 | 58 | 229 | 7.0 | 16.0 | 0.00 | 0.00 | 0.00 | 51 | 1004.4 |
| 20260505071536 | 58 | 217 | 9.0 | 16.0 | 0.00 | 0.00 | 0.00 | 50 | 1004.2 |
| 20260505071035 | 58 | 217 | 8.0 | 19.0 | 0.00 | 0.00 | 0.00 | 50 | 1004.0 |
| 20260505070536 | 58 | 194 | 9.0 | 19.0 | 0.00 | 0.00 | 0.00 | 50 | 1004.0 |
| 20260505070041 | 58 | 180 | 11.0 | 16.0 | 0.00 | 0.00 | 0.00 | 49 | 1003.9 |
| 20260505065535 | 58 | 182 | 9.0 | 18.0 | 0.00 | 0.00 | 0.00 | 50 | 1003.8 |
| 20260505065034 | 58 | 145 | 9.0 | 21.0 | 0.00 | 0.00 | 0.00 | 49 | 1003.8 |
| 20260505064535 | 58 | 190 | 10.0 | 21.0 | 0.00 | 0.00 | 0.00 | 49 | 1003.8 |
| 20260505064032 | 58 | 178 | 8.0 | 21.0 | 0.00 | 0.00 | 0.00 | 50 | 1003.8 |
| 20260505063532 | 58 | 215 | 13.0 | 22.0 | 0.00 | 0.00 | 0.00 | 49 | 1003.8 |
| 20260505063031 | 58 | 182 | 7.0 | 22.0 | 0.00 | 0.00 | 0.00 | 50 | 1003.9 |
| 20260505062532 | 58 | 201 | 10.0 | 23.0 | 0.00 | 0.00 | 0.00 | 51 | 1003.8 |
| 20260505062029 | 58 | 162 | 10.0 | 22.0 | 0.00 | 0.00 | 0.00 | 49 | 1003.8 |
| 20260505061538 | 58 | 159 | 10.0 | 17.0 | 0.00 | 0.00 | 0.00 | 49 | 1003.9 |
| 20260505061027 | 58 | 186 | 9.0 | 16.0 | 0.00 | 0.00 | 0.00 | 49 | 1003.9 |
| 20260505060527 | 58 | 208 | 10.0 | 17.0 | 0.00 | 0.00 | 0.00 | 49 | 1004.1 |
| 20260505060026 | 58 | 223 | 8.0 | 17.0 | 0.00 | 0.00 | 0.00 | 49 | 1004.0 |
| 20260505055525 | 58 | 171 | 7.0 | 18.0 | 0.00 | 0.00 | 0.00 | 49 | 1004.0 |
| 20260505055026 | 58 | 177 | 11.0 | 18.0 | 0.00 | 0.00 | 0.00 | 49 | 1004.1 |
| 20260505054533 | 58 | 163 | 10.0 | 18.0 | 0.00 | 0.00 | 0.00 | 48 | 1004.0 |
| 20260505054025 | 58 | 201 | 8.0 | 18.0 | 0.00 | 0.00 | 0.00 | 48 | 1004.1 |
| 20260505053527 | 59 | 177 | 8.0 | 21.0 | 0.00 | 0.00 | 0.00 | 47 | 1004.1 |
| 20260505053023 | 59 | 152 | 11.0 | 21.0 | 0.00 | 0.00 | 0.00 | 47 | 1004.2 |
| 20260505052521 | 59 | 173 | 10.0 | 24.0 | 0.00 | 0.00 | 0.00 | 47 | 1004.1 |
| 20260505052020 | 59 | 202 | 8.0 | 26.0 | 0.00 | 0.00 | 0.00 | 46 | 1004.1 |
| 20260505051521 | 59 | 209 | 12.0 | 26.0 | 0.00 | 0.00 | 0.00 | 46 | 1004.2 |